Satellite-Ground Cal/Val Site Overpasses Predictions

Prediction of Satellite NPP Overpassing Cal/Val Site: Antarctic Dome C

Ground Cal/Val Site Location: Latitude: -75.10, Longitude: 123.35; Satellite-Ground Site NADIR distance within 100 km.

Table of predicted overpasses for the next 14.0 days since TLE Epoch: 5/27/2012
Interval Starting Time Ending Time Minimum Distance Time Minimum Distance (km)
1 05/28/2012 14:59:52 05/28/2012 15:00:15 05/28/2012 15:00:04 57.57
2 05/29/2012 14:41:01 05/29/2012 14:41:26 05/29/2012 14:41:13 51.79
3 05/30/2012 07:42:41 05/30/2012 07:43:01 05/30/2012 07:42:51 73.00
4 05/31/2012 07:23:47 05/31/2012 07:24:14 05/31/2012 07:24:01 34.98
5 06/02/2012 15:06:11 06/02/2012 15:06:19 06/02/2012 15:06:15 94.86
6 06/03/2012 14:47:09 06/03/2012 14:47:38 06/03/2012 14:47:23 16.45
7 06/05/2012 07:29:57 06/05/2012 07:30:26 06/05/2012 07:30:11 2.38
8 06/08/2012 14:53:19 06/08/2012 14:53:47 06/08/2012 14:53:33 19.45
9 06/09/2012 14:34:36 06/09/2012 14:34:50 06/09/2012 14:34:43 87.59
